Regional Weather Roundup
Issued by NWS Albuquerque, NM

Home | Current Version | Previous Version | Text Only | Print | Product List | Glossary On
Versions: 1 2 3 4 5 6 7 8 9 10 11 12 13 14 15 16 17 18 19 20 21 22 23 24 25 26 27 28 29 30 31 32 33 34 35 36 37 38 39 40 41 42 43 44 45 46 47 48 49 50
860
NZUS01 KABQ 141710
RWRABQ
NEW MEXICO REGIONAL WEATHER ROUNDUP
NATIONAL WEATHER SERVICE  ALBUQUERQUE NM
1000 AM MST THU NOV 14 2019


-----NORTHERN NEW MEXICO AND NEARBY AREAS-----


CITY           SKY/WX    TMP DP  RH WIND       PRES   REMARKS
ALBUQUERQUE    FAIR      47  19  33 NW8       30.34R
BELEN          FAIR      46  17  30 CALM      30.36R
SOCORRO        FAIR      52  18  25 N10G16    30.33R

CITY           SKY/WX    TMP DP  RH WIND       PRES   REMARKS
SANTA FE       SUNNY     47  18  31 SE17      30.36R
LOS ALAMOS     SUNNY     42  16  34 S5        30.37S
TAOS           SUNNY     42  14  32 CALM      30.39R
ANGEL FIRE     FAIR      38  15  39 CALM      30.38S
FARMINGTON     SUNNY     41  12  30 E8        30.32R
GRANTS         SUNNY     42  16  34 NW3       30.37R
GALLUP         SUNNY     46  14  27 CALM      30.33S
FLAGSTAFF      SUNNY     55  16  21 N5        30.33R
DURANGO        SUNNY     44  15  31 CALM      30.33R

CITY           SKY/WX    TMP DP  RH WIND       PRES   REMARKS
ALAMOSA        SUNNY     39  10  30 SE6       30.36R
DENVER         MOSUNNY   42  30  62 SW9       30.32F
CLAYTON        SUNNY     46  27  47 CALM      30.38R
RATON          SUNNY     43  21  41 VRB5      30.38R
LAS VEGAS      SUNNY     43  22  43 S15       30.37R
CLINES CORNERS SUNNY     44  21  40 SE10      30.39R
SANTA ROSA     FAIR      47  26  44 S5        30.39R
TUCUMCARI      SUNNY     46  30  53 SE6       30.40R
CLOVIS (AFB)   SUNNY     44  31  59 E8        30.42R
CLOVIS         SUNNY     45  32  60 E15       30.42R
AMARILLO       SUNNY     47  31  53 NE8       30.39S

-----SOUTHERN NEW MEXICO AND NEARBY AREAS-----


CITY           SKY/WX    TMP DP  RH WIND       PRES   REMARKS
T OR C         SUNNY     56  18  22 NE12      30.30R
DEMING         SUNNY     58  22  24 E10       30.30R
TUCSON         SUNNY     66  32  28 SE7       30.18R
EL PASO        MOSUNNY   55  32  41 CALM      30.31R
LAS CRUCES     SUNNY     56  23  27 SE7       30.32R

CITY           SKY/WX    TMP DP  RH WIND       PRES   REMARKS
ALAMOGORDO     SUNNY     49  26  40 SE8       30.31R
RUIDOSO        SUNNY     41  19  42 SE12      30.41R
ROSWELL        SUNNY     49  30  48 NE6       30.41R
CARLSBAD       SUNNY     49  28  44 NE8       30.40R



USA.gov is the U.S. government's official web portal to all federal, state and local government web resources and services.